KMS 3-2

导读

KMS 3-2即“光明星3号”二期卫星,由朝鲜(KP)于2012年12月12日8点,通过银河3号运载火箭从东仓里西海卫星发射场发射升空。朝鲜官方宣布卫星顺利进入预定轨道,称此次卫星入轨技术获得满分,但韩方质疑其未准确进入预定轨道,这颗100公斤以下的卫星无推进器,后续各国对其是否正常工作开展持续观测。该发射引发国际社会广泛关注,也推动了朝鲜航天技术的发展。

Basic Information
目录编号:
39026
目录名称:
KMS 3-2
国际标识:
2012-072A
轨道中心:
EARTH
卫星名称:
KMS 3-2
卫星全名:
--
卫星状态:
已陨落 最后检测时间 2023-09-13
发射日期:
2012-12-12 UTC
国别 :
(KP)
星等 :
--
Orbit Information
数据来源 国际轨道数据
星历时间: 2023-09-13T07:20:32+0800
轨道信息已过期1035天
半长轴: 6608.561km
偏心率: 0.0006472
轨道倾角: 97.262°
近地点辐角 205.182°
升交点赤经 258.207°
平近点角 154.915°
近地点: 226.148km
远地点: 234.704km
周期: 89.109分钟
每日圈数: 16.160042
Detailed Information
使用方式:
暂无